Location: Bavegemberg
(50.9500°N, 3.8833°E)
Time: 14:30:41
(UTC+00:00)

Meteor 1-28 Rocket - Pass Details

Date: 23 May 2024
Orbit: 474 x 489 km, 97.5° (Epoch: 16 June)

Event Time Altitude Azimuth Distance (km) Brightness Sun altitude
Exits shadow 02:00:06 - 157° (SSE) 2,040 5.9 -12.2°
Reaches altitude 10° 02:01:00 10° 156° (SSE) 1,658 5.4 -12.1°
Maximum altitude 02:04:32 67° 74° (ENE) 525 3.4 -11.8°
Drops below altitude 10° 02:08:05 10° 351° (N) 1,664 6.5 -11.5°
Sets 02:10:09 0° 349° (N) 2,546 7.4 -11.3°
